Tracking 30995 objects as of 6-Jul-2025
HD Live streaming from Space Station
objects crossing your sky now

OBJECT B

Track OBJECT B now!
10-day predictions


NORAD ID: 53445
Int'l Code: 2022-098B
Perigee: 461.1 km
Apogee: 468.7 km
Inclination: 97.5 °
Period: 93.7 minutes
Semi major axis: 6835 km
RCS: Unknown
Launch date: August 10, 2022
Source: People's Republic of China (PRC)
Launch site: Taiyaun Space Center, China (TSC)
Your satellite tracking list
Your tracking list is empty




NASA's NSSDC Master Catalog

Two Line Element Set (TLE):
1 53445U 22098B   25187.55361918  .00016524  00000-0  47206-3 0  9993
2 53445  97.5365 296.7291 0005510 170.8973 189.2372 15.36069254161135
Source of the keplerian elements: AFSPC